Waarnemingen

Advertentie
Mijn weer
Granada/Aeropuerto, Spanje (8419): temperatuur & dauwpunt: 09.01.2021 22:00:00 - 15.01.2021 22:00:00 (CET)Granada/Aeropuerto, Spanje (8419): windsnelheid: 09.01.2021 22:00:00 - 15.01.2021 22:00:00 (CET)Granada/Aeropuerto, Spanje (8419): windrichting: 09.01.2021 22:00:00 - 15.01.2021 22:00:00 (CET)Granada/Aeropuerto, Spanje (8419): luchtdruk: 09.01.2021 22:00:00 - 15.01.2021 22:00:00 (CET)Granada/Aeropuerto, Spanje (8419): zicht: 09.01.2021 22:00:00 - 15.01.2021 22:00:00 (CET)
Datum & Tijd tt [°C] td [°C] ff [km/u] ff [kn] dd ppp [hPa] vv [km]
15.01.2021 22:00:00 - - - - - - -
15.01.2021 21:00:00 4,9 -1,6 8 4 WNW 1027,2 30
15.01.2021 20:00:00 8,3 -2,8 5 3 NNW 1026,4 30
15.01.2021 19:00:00 8,3 -0,5 5 3 W 1026,1 30
15.01.2021 18:00:00 13,1 -0,2 8 4 NNW 1024,1 30
15.01.2021 17:00:00 15,4 1,8 9 5 W 1023,1 30
15.01.2021 16:00:00 15,4 1,0 5 3 WNW 1023,1 30
15.01.2021 15:00:00 14,1 2,0 0 0 N 1023,4 18
15.01.2021 14:00:00 11,6 2,0 0 0 N 1025,0 20
15.01.2021 13:00:00 8,8 1,3 2 1 NNW 1027,0 16
15.01.2021 12:00:00 6,0 0,9 0 0 N 1028,9 13
15.01.2021 11:00:00 1,7 -0,3 0 0 N 1030,1 9
15.01.2021 10:00:00 -1,4 -2,5 4 2 NNW 1030,7 10
15.01.2021 09:00:00 -4,2 -4,8 2 1 ZZW 1030,9 6
15.01.2021 08:00:00 -4,7 -5,6 0 0 N 1031,0 8
15.01.2021 07:00:00 -4,1 -4,9 0 0 N 1030,6 10
15.01.2021 06:00:00 -3,8 -4,6 0 0 N 1030,6 8
15.01.2021 05:00:00 -3,2 -4,0 2 1 ZW 1030,4 8
15.01.2021 04:00:00 -2,5 -3,5 0 0 N 1030,4 8
15.01.2021 03:00:00 -1,9 -3,0 0 0 N 1030,3 8
15.01.2021 02:00:00 -1,0 -2,0 4 2 O 1029,9 10
15.01.2021 01:00:00 -0,2 -1,0 2 1 ZW 1029,7 10
15.01.2021 00:00:00 0,8 -1,2 0 0 N 1029,3 12
14.01.2021 23:00:00 1,8 -0,6 4 2 WZW 1028,7 16
14.01.2021 22:00:00 3,3 0,2 0 0 N 1028,3 25
14.01.2021 21:00:00 3,6 0,2 5 3 ZW 1028,0 18
14.01.2021 20:00:00 5,5 0,9 9 5 WZW 1027,1 23
14.01.2021 19:00:00 7,0 1,5 16 9 W 1026,1 20
14.01.2021 18:00:00 10,5 1,3 11 6 WZW 1024,9 30
14.01.2021 17:00:00 12,9 1,3 15 8 W 1024,1 30
14.01.2021 16:00:00 12,6 0,2 5 3 WNW 1024,2 30
14.01.2021 15:00:00 11,3 0,0 2 1 NW 1024,7 25
14.01.2021 14:00:00 9,2 -0,3 0 0 N 1026,3 30
14.01.2021 13:00:00 7,4 0,2 0 0 N 1027,9 30
14.01.2021 12:00:00 4,1 -0,7 0 0 N 1029,8 10
14.01.2021 11:00:00 1,2 -1,4 0 0 N 1031,0 16
14.01.2021 10:00:00 -1,8 -3,4 0 0 N 1031,9 15
14.01.2021 09:00:00 -4,7 -5,7 0 0 N 1032,4 15
14.01.2021 08:00:00 -5,0 -6,1 0 0 N 1032,2 15
14.01.2021 07:00:00 -5,0 -6,1 0 0 N 1032,1 15
14.01.2021 06:00:00 -4,4 -5,4 0 0 N 1032,2 13
14.01.2021 05:00:00 -4,4 -5,5 0 0 N 1032,4 14
14.01.2021 04:00:00 -3,7 -4,8 0 0 N 1032,5 13
14.01.2021 03:00:00 -3,1 -4,4 0 0 N 1032,5 14
14.01.2021 02:00:00 -2,7 -3,9 0 0 N 1032,4 15
14.01.2021 01:00:00 -2,1 -3,4 0 0 N 1032,4 17
14.01.2021 00:00:00 -1,4 -2,8 5 3 WZW 1032,5 14
13.01.2021 23:00:00 -0,9 -2,3 2 1 WZW 1032,3 16
13.01.2021 22:00:00 0,6 -1,3 0 0 N 1031,5 30
13.01.2021 21:00:00 1,9 -0,8 8 4 ZZW 1030,8 23
13.01.2021 20:00:00 3,7 -0,8 5 3 ZW 1030,0 30
13.01.2021 19:00:00 4,9 -0,1 8 4 ZZW 1029,2 30
13.01.2021 18:00:00 12,3 -2,4 4 2 W 1027,0 30
13.01.2021 17:00:00 13,5 -2,7 4 2 WNW 1026,6 30
13.01.2021 16:00:00 12,5 -1,3 0 0 N 1026,9 30
13.01.2021 15:00:00 10,9 -2,1 0 0 N 1027,2 30
13.01.2021 14:00:00 8,7 -1,4 2 1 NNW 1028,6 30
13.01.2021 13:00:00 7,3 -0,4 0 0 N 1030,3 25
13.01.2021 12:00:00 3,6 -0,1 0 0 N 1032,2 15
13.01.2021 11:00:00 0,4 -1,7 0 0 N 1033,5 16
13.01.2021 10:00:00 -1,4 -2,8 0 0 N 1033,6 12
13.01.2021 09:00:00 -5,3 -6,5 0 0 N 1034,3 17
13.01.2021 08:00:00 -5,2 -6,1 0 0 N 1033,7 12
13.01.2021 07:00:00 -5,4 -6,4 2 1 Z 1033,4 12
13.01.2021 06:00:00 -4,3 -4,8 0 0 N 1032,9 14
13.01.2021 05:00:00 -3,9 -4,7 4 2 Z 1032,9 12
13.01.2021 04:00:00 -3,6 -4,3 0 0 N 1033,1 10
13.01.2021 03:00:00 -3,1 -3,8 4 2 ZZW 1033,2 11
13.01.2021 02:00:00 -3,2 -4,2 0 0 N 1033,2 11
13.01.2021 01:00:00 -1,7 -2,4 2 1 ZW 1033,3 17
13.01.2021 00:00:00 -1,0 -2,0 4 2 Z 1033,2 26
12.01.2021 23:00:00 -0,8 -2,1 4 2 O 1033,2 16
12.01.2021 22:00:00 -0,3 -1,3 5 3 WZW 1032,6 25
12.01.2021 21:00:00 1,0 -0,8 0 0 N 1031,8 25
12.01.2021 20:00:00 2,1 0,2 4 2 W 1030,9 30
12.01.2021 19:00:00 3,8 1,0 5 3 ZZO 1030,1 25
12.01.2021 18:00:00 9,6 0,7 4 2 W 1028,4 30
12.01.2021 17:00:00 11,4 -0,8 2 1 W 1027,7 29
12.01.2021 16:00:00 11,0 -0,4 2 1 WNW 1027,4 30
12.01.2021 15:00:00 9,8 -0,9 0 0 N 1027,9 30
12.01.2021 14:00:00 7,8 1,7 0 0 N 1029,0 30
12.01.2021 13:00:00 5,8 1,4 0 0 N 1030,4 1,5
12.01.2021 12:00:00 3,5 0,4 0 0 N 1031,7 16
12.01.2021 11:00:00 1,1 -0,5 0 0 N 1032,4 11
12.01.2021 10:00:00 -0,5 -1,7 0 0 N 1032,4 12
12.01.2021 09:00:00 -3,8 -4,5 0 0 N 1032,7 11
12.01.2021 08:00:00 -3,7 -4,2 2 1 WNW 1031,9 12
12.01.2021 07:00:00 -3,4 -3,9 0 0 N 1031,1 15
12.01.2021 06:00:00 -3,4 -4,1 4 2 WZW 1030,4 14
12.01.2021 05:00:00 -3,1 -4,2 0 0 N 1030,2 14
12.01.2021 04:00:00 -2,2 -2,8 0 0 N 1030,0 14
12.01.2021 03:00:00 -1,8 -2,5 0 0 N 1029,5 13
12.01.2021 02:00:00 -1,7 -2,4 0 0 N 1028,9 16
12.01.2021 01:00:00 -1,2 -2,0 4 2 ZW 1028,5 18
12.01.2021 00:00:00 0,0 -1,1 2 1 ZO 1027,9 28
11.01.2021 23:00:00 0,5 -0,8 4 2 WZW 1026,9 20
11.01.2021 22:00:00 2,1 -0,2 9 5 ZZW 1025,7 22
11.01.2021 21:00:00 3,0 0,4 4 2 ZW 1024,6 30
11.01.2021 20:00:00 4,7 2,1 8 4 WZW 1023,3 20
11.01.2021 19:00:00 6,4 2,0 11 6 ZW 1021,7 20
11.01.2021 18:00:00 8,8 1,6 0 0 N 1020,6 30
11.01.2021 17:00:00 9,7 0,6 5 3 WZW 1019,6 30
11.01.2021 16:00:00 10,5 1,2 4 2 ZW 1018,8 25
11.01.2021 15:00:00 9,9 0,7 4 2 ZW 1018,5 30
11.01.2021 14:00:00 8,5 0,3 0 0 N 1019,1 22
11.01.2021 13:00:00 6,6 1,0 2 1 ZZW 1019,9 20
11.01.2021 12:00:00 4,1 0,8 0 0 N 1021,1 24
11.01.2021 11:00:00 2,4 0,7 0 0 N 1021,1 14
11.01.2021 10:00:00 0,4 -0,6 4 2 O 1020,5 12
11.01.2021 09:00:00 -2,0 -2,6 0 0 N 1020,1 14
11.01.2021 08:00:00 -1,9 -2,5 0 0 N 1019,1 10
11.01.2021 07:00:00 -1,0 -1,4 0 0 N 1018,2 12
11.01.2021 06:00:00 -1,6 -2,1 0 0 N 1018,1 13
11.01.2021 05:00:00 -1,6 -2,3 4 2 ZO 1017,9 14
11.01.2021 04:00:00 -1,4 -2,2 4 2 ZW 1017,7 12
11.01.2021 03:00:00 -1,2 -1,8 9 5 ZW 1017,1 12
11.01.2021 02:00:00 -1,5 -2,1 5 3 N 1017,0 9
11.01.2021 01:00:00 -1,4 -1,8 4 2 ZW 1016,8 9
11.01.2021 00:00:00 -1,3 -1,9 4 2 Z 1016,8 9
10.01.2021 23:00:00 -1,1 -1,8 2 1 ZZW 1016,4 9
10.01.2021 22:00:00 -0,6 -1,3 4 2 ZO 1015,7 30
10.01.2021 21:00:00 0,1 -1,0 0 0 N 1015,0 30
10.01.2021 20:00:00 1,0 -0,6 4 2 ZZW 1014,1 30
10.01.2021 19:00:00 2,8 0,2 4 2 OZO 1013,1 30
10.01.2021 18:00:00 5,2 0,4 5 3 ZZO 1011,9 30
10.01.2021 17:00:00 6,9 0,6 22 12 ZZO 1011,0 30
10.01.2021 16:00:00 6,9 1,1 13 7 ZZO 1010,4 30
10.01.2021 15:00:00 7,0 -0,7 2 1 W 1009,9 30
10.01.2021 14:00:00 6,2 1,0 5 3 WNW 1010,1 30
10.01.2021 13:00:00 5,2 1,0 4 2 NNW 1010,4 30
10.01.2021 12:00:00 3,8 0,8 4 2 NO 1011,3 25
10.01.2021 11:00:00 2,3 0,4 2 1 W 1011,5 30
10.01.2021 10:00:00 0,7 0,1 4 2 Z 1010,9 30
10.01.2021 09:00:00 0,4 -0,3 4 2 NO 1010,0 30
10.01.2021 08:00:00 0,4 -0,1 9 5 O 1009,3 30
10.01.2021 07:00:00 1,3 0,1 13 7 OZO 1008,7 30
10.01.2021 06:00:00 0,7 0,3 0 0 N 1008,5 30
10.01.2021 05:00:00 0,5 -0,1 4 2 NNW 1008,1 30
10.01.2021 04:00:00 1,6 0,6 4 2 O 1008,0 30
10.01.2021 03:00:00 2,4 0,9 8 4 O 1007,4 30
10.01.2021 02:00:00 2,9 1,4 13 7 ZO 1006,7 30
10.01.2021 01:00:00 3,8 2,2 5 3 ZW 1006,8 8
10.01.2021 00:00:00 4,3 1,5 18 10 ZO 1006,4 18
09.01.2021 23:00:00 4,5 1,5 22 12 ZZO 1006,2 30
09.01.2021 22:00:00 5,1 1,0 8 4 Z 1006,0 25

tt = temperatuur
td = dauwpunt
ff = windsnelheid
dd = windrichting
ppp = luchtdruk
vv = zicht

Weerstations in de omgeving